Showing default

GONETS D1 7, 27058

Orbit data source: Space-Track

GONETS D1 7, 27058 is a payload satellite owned by Gonets (CIS) in LEO that was launched on Fri, 28 Dec 2001 UTC via a TSIKLON-3 launch vehicle from the Plesetsk Missile And Space Complex (PKMTR). Payload-class satellites include a variety of spacecraft equipped with specific instruments for various scientific and technological missions. These include communications satellites like Starlink; space stations such as the ISS; scientific satellites like the Hubble; Earth observation satellites from companies like Planet Labs, Umbra, and HawkEye 360; GPS; miniature CubeSats for education and research; and military/defense satellites.

Loading next visibility...
Identifier
27058, 2001-058D
Orbit
LEO
Country
Flag of CISCIS
Related business
Manufacturer
NPO PM
Mission
Non-operational Civil Communications
Bus & Motor
STRELA-3, Unknown motor
Mass
225 kg wet, 225 kg dry
Launch date (UTC)
2001-12-28 (24 years ago)
Launch vehicle
TSIKLON-3
Launch site
Plesetsk Missile And Space Complex (PKMTR)
Object type
Payload
Rocket body
Debris
Shape & HBR
Cyl + 1 Ant, 3.5 m
Radar Cross Section
1.798 m², Medium (>0.1 m² and < 1m²)

Expand to show TLE details & history
Last TLE update: 11 hours ago

TLE from 11 hours ago
0 GONETS D1 7
1 27058U 01058D   26036.07249947  .00000032  00000-0  11928-3 0  9994
2 27058  82.5340 286.6017 0002395 312.4684  47.6204 12.62083173110326
Epoch: 2026-02-05T01:44Z
TLE epoch observation values (Epoch: 2026-02-05T01:44:23.954Z)
Latitude
-0.00002°
Longitude
125.27191°
Altitude
1,415.828 km
Speed
7.153 km/s
True Right ascension
19h 06m 24s
True Declination
0° 00' 00"
Sunlit
Object was in daylight at epoch
Visualization orbit readout
Latitude
Unknown
Longitude
Unknown
Altitude
Unknown
Speed
Unknown
Apparent Right ascension
Unknown
Apparent Declination
Unknown
Sunlit
N/A
Visualization observer readout
Local Sidereal Time
14:56:00
Azimuth
Unknown
Elevation
Unknown
Doppler factor
Unknown
Orbital elements
Apogee altitude
1,413.546 km
Perigee altitude
1,409.815 km
Semi-major axis
7,789.818 km
Eccentricity
0.00024
Inclination
82.534°
RAAN
286.6017°
Arg. of periapsis
312.4684°
True anomaly
47.64068°
Mean anomaly
47.6204°
Eccentric anomaly
47.63054°
Mean motion
3.15684 °/min
Orbital period
114.04 mins
BSTAR
0.00011928
Loading maneuver chart data...
Computing Atmospheric mass density...
Loading historical data...
Loading historical data...
Loading historical data...
Loading historical data...
Loading historical data...
Loading historical data...
Loading historical data...

Documentation

Showing up to 5 results
|